Location: Kershaw
(34.5481°N, 80.5823°W)
Time: 11:24:13
(UTC+00:00)

Explorer 7 - Pass Details

Date: 10 October 2022
Orbit: 481 x 665 km, 50.3° (Epoch: 26 November)

Event Time Altitude Azimuth Distance (km) Brightness Sun altitude
Rises 19:55:12 0° 308° (NW) 2,961 10.7 33.0°
Reaches altitude 10° 19:57:36 10° 307° (NW) 2,027 10.0 32.6°
Maximum altitude 20:02:15 72° 223° (SW) 649 8.1 31.9°
Drops below altitude 10° 20:06:37 10° 140° (SE) 1,910 9.6 31.1°
Sets 20:08:50 0° 138° (SE) 2,775 10.3 30.8°
